QPF
0.00 0.00 0.00 0.00 0.00 0.02 0.00 0.00 0.00 0.01 0.02 0.01 0.00 0.00 0.00 0.00 0.00 0.00 0.00 0.00 0.00 0.00 0.00 0.00 0.00 0.00 0.00 0.00 0.00 0.00 0.00 0.00 0.00 0.00 0.00 0.00 0.00 0.00 0.00 0.00 0.00 0.00 0.00
0.00 0.00 0.00 0.01 0.02 0.00 0.00 0.00 0.01 0.00 0.00 0.00 0.00 0.00 0.00 0.00 0.00 0.00 0.00 0.00 0.00 0.00 0.00 0.00 0.00 0.00 0.00 0.00 0.00 0.00 0.00 0.00 0.00 0.00 0.00 0.00 0.00 0.00 0.00 0.00 0.00 0.00 0.00
0.00 0.00 0.00 0.02 0.01 0.00 0.00 0.00 0.00 0.00 0.00 0.00 0.00 0.00 0.00 0.00 0.00 0.00 0.00 0.00 0.00 0.00 0.00 0.00 0.00 0.00 0.00 0.00 0.00 0.00 0.00 0.00 0.00 0.00 0.00 0.00 0.00 0.00 0.00 0.00 0.00 0.00 0.00
0.00 0.00 0.01 0.01 0.00 0.00 0.00 0.00 0.00 0.00 0.00 0.00 0.00 0.00 0.00 0.00 0.00 0.00 0.00 0.00 0.00 0.00 0.00 0.00 0.00 0.00 0.00 0.00 0.00 0.00 0.00 0.00 0.00 0.00 0.00 0.00 0.00 0.01 0.01 0.01 0.03 0.01 0.00
0.00 0.01 0.00 0.00 0.00 0.00 0.00 0.00 0.00 0.00 0.00 0.00 0.00 0.00 0.00 0.00 0.00 0.00 0.00 0.00 0.00 0.00 0.00 0.00 0.00 0.00 0.00 0.00 0.00 0.00 0.00 0.00 0.00 0.00 0.00 0.00 0.01 0.01 0.00 0.00 0.01 0.01 0.01
0.00 0.00 0.00 0.00 0.00 0.00 0.00 0.00 0.00 0.00 0.00 0.00 0.00 0.00 0.00 0.00 0.00 0.00 0.00 0.00 0.00 0.00 0.00 0.00 0.00 0.00 0.00 0.00 0.00 0.00 0.00 0.00 0.00 0.00 0.00 0.00 0.00 0.00 0.00 0.00 0.00 0.00 0.00
0.00 0.00 0.00 0.00 0.00 0.00 0.00 0.00 0.00 0.00 0.00 0.00 0.00 0.00 0.00 0.00 0.00 0.00 0.00 0.00 0.00 0.00 0.00 0.00 0.00 0.00 0.00 0.00 0.00 0.00 0.00 0.00 0.00 0.00 0.00 0.00 0.01 0.01 0.00 0.01 0.00 0.00 0.00
0.00 0.00 0.00 0.00 0.00 0.00 0.00 0.00 0.00 0.00 0.00 0.00 0.00 0.00 0.00 0.00 0.00 0.00 0.00 0.00 0.00 0.00 0.00 0.00 0.00 0.00 0.00 0.00 0.00 0.00 0.00 0.00 0.00 0.00 0.00 0.00 0.00 0.00 0.00 0.00 0.00 0.01 0.00
0.00 0.00 0.00 0.00 0.00 0.00 0.00 0.00 0.00 0.00 0.00 0.00 0.00 0.00 0.00 0.00 0.00 0.00 0.00 0.00 0.00 0.00 0.00 0.00 0.00 0.00 0.00 0.00 0.00 0.00 0.00 0.00 0.00 0.00 0.00 0.00 0.00 0.00 0.00 0.00 0.00 0.01 0.01
0.00 0.00 0.00 0.00 0.00 0.00 0.00 0.00 0.00 0.00 0.00 0.00 0.00 0.00 0.00 0.00 0.00 0.00 0.00 0.00 0.00 0.00 0.00 0.00 0.00 0.00 0.00 0.00 0.00 0.00 0.00 0.00 0.00 0.00 0.00 0.01 0.00 0.00 0.00 0.00 0.00 0.01 0.01
0.00 0.00 0.00 0.00 0.00 0.00 0.00 0.00 0.00 0.00 0.00 0.00 0.00 0.00 0.00 0.00 0.00 0.00 0.00 0.00 0.00 0.00 0.00 0.00 0.00 0.00 0.00 0.00 0.00 0.00 0.00 0.00 0.00 0.00 0.00 0.00 0.00 0.00 0.00 0.00 0.00 0.00 0.00
0.00 0.00 0.00 0.00 0.00 0.00 0.00 0.00 0.00 0.00 0.00 0.00 0.00 0.00 0.00 0.00 0.00 0.00 0.00 0.00 0.00 0.00 0.00 0.00 0.00 0.00 0.00 0.00 0.00 0.00 0.00 0.00 0.00 0.00 0.00 0.00 0.00 0.00 0.00 0.00 0.00 0.00 0.00
0.00 0.00 0.00 0.00 0.00 0.00 0.00 0.00 0.00 0.00 0.00 0.00 0.00 0.00 0.00 0.00 0.00 0.00 0.00 0.00 0.00 0.00 0.00 0.00 0.00 0.00 0.00 0.00 0.00 0.00 0.00 0.00 0.00 0.00 0.00 0.00 0.00 0.00 0.00 0.00 0.00 0.00 0.00
0.00 0.00 0.00 0.00 0.00 0.00 0.00 0.00 0.00 0.00 0.00 0.00 0.00 0.00 0.00 0.00 0.00 0.00 0.00 0.00 0.00 0.00 0.00 0.00 0.00 0.00 0.00 0.00 0.00 0.00 0.00 0.00 0.00 0.00 0.00 0.00 0.00 0.00 0.00 0.00 0.00 0.00 0.00
0.00 0.00 0.00 0.00 0.00 0.00 0.00 0.00 0.00 0.00 0.00 0.00 0.00 0.00 0.00 0.00 0.00 0.00 0.00 0.00 0.00 0.00 0.00 0.00 0.00 0.00 0.00 0.00 0.00 0.00 0.00 0.00 0.00 0.00 0.00 0.00 0.00 0.00 0.00 0.00 0.00 0.00 0.00
0.00 0.00 0.00 0.00 0.00 0.00 0.00 0.00 0.00 0.00 0.00 0.00 0.00 0.00 0.00 0.00 0.00 0.00 0.00 0.00 0.00 0.00 0.00 0.00 0.00 0.00 0.00 0.00 0.00 0.00 0.00 0.00 0.00 0.00 0.00 0.00 0.00 0.00 0.00 0.00 0.00 0.00 0.00
0.00 0.00 0.00 0.00 0.00 0.00 0.00 0.00 0.00 0.00 0.00 0.00 0.00 0.00 0.00 0.00 0.00 0.00 0.00 0.00 0.00 0.00 0.00 0.00 0.00 0.00 0.00 0.00 0.00 0.00 0.00 0.00 0.00 0.00 0.00 0.00 0.00 0.00 0.00 0.00 0.00 0.00 0.00
0.01 0.00 0.00 0.00 0.00 0.00 0.00 0.00 0.00 0.00 0.00 0.00 0.00 0.00 0.00 0.00 0.00 0.00 0.00 0.00 0.00 0.00 0.00 0.00 0.00 0.00 0.00 0.00 0.00 0.00 0.00 0.00 0.00 0.00 0.00 0.00 0.00 0.00 0.00 0.00 0.00 0.00 0.00
0.06 0.01 0.00 0.00 0.00 0.00 0.00 0.00 0.00 0.00 0.00 0.00 0.00 0.00 0.00 0.00 0.00 0.00 0.00 0.00 0.00 0.00 0.00 0.00 0.00 0.00 0.00 0.00 0.00 0.00 0.00 0.00 0.00 0.00 0.00 0.00 0.00 0.00 0.00 0.00 0.00 0.00 0.00
0.26 0.07 0.00 0.00 0.00 0.00 0.00 0.00 0.00 0.00 0.00 0.00 0.00 0.00 0.00 0.00 0.00 0.00 0.00 0.00 0.00 0.00 0.00 0.00 0.00 0.00 0.00 0.00 0.00 0.00 0.00 0.00 0.00 0.00 0.00 0.00 0.00 0.00 0.00 0.00 0.00 0.00 0.00
0.84 0.37 0.04 0.00 0.00 0.00 0.00 0.00 0.00 0.00 0.00 0.00 0.00 0.00 0.00 0.00 0.00 0.00 0.00 0.00 0.00 0.00 0.00 0.00 0.00 0.00 0.00 0.00 0.00 0.00 0.00 0.00 0.00 0.00 0.00 0.00 0.00 0.00 0.00 0.00 0.00 0.00 0.00
0.93 0.96 0.19 0.02 0.00 0.00 0.00 0.00 0.00 0.00 0.00 0.00 0.00 0.00 0.00 0.00 0.00 0.00 0.00 0.00 0.00 0.00 0.00 0.00 0.00 0.00 0.00 0.00 0.00 0.00 0.00 0.00 0.00 0.00 0.00 0.00 0.00 0.00 0.00 0.00 0.00 0.00 0.00
0.40 0.90 0.73 0.12 0.01 0.00 0.00 0.00 0.00 0.00 0.00 0.00 0.00 0.00 0.00 0.00 0.00 0.00 0.00 0.00 0.00 0.00 0.00 0.00 0.00 0.00 0.00 0.00 0.00 0.00 0.00 0.00 0.00 0.00 0.00 0.00 0.00 0.00 0.00 0.00 0.00 0.00 0.00
0.19 0.45 0.70 0.52 0.08 0.01 0.00 0.00 0.00 0.00 0.00 0.00 0.00 0.00 0.00 0.00 0.00 0.00 0.00 0.00 0.00 0.00 0.00 0.00 0.00 0.00 0.00 0.00 0.00 0.00 0.00 0.00 0.00 0.00 0.00 0.00 0.00 0.00 0.00 0.00 0.00 0.00 0.00
0.22 0.55 0.66 0.55 0.43 0.10 0.01 0.00 0.00 0.00 0.00 0.00 0.00 0.00 0.00 0.00 0.00 0.00 0.00 0.00 0.00 0.00 0.00 0.00 0.00 0.00 0.00 0.00 0.00 0.00 0.00 0.00 0.00 0.00 0.00 0.00 0.00 0.00 0.00 0.00 0.00 0.00 0.00
0.11 0.44 0.95 0.84 0.60 0.35 0.04 0.00 0.00 0.00 0.00 0.00 0.00 0.00 0.00 0.00 0.00 0.00 0.00 0.00 0.00 0.00 0.00 0.00 0.00 0.00 0.00 0.00 0.00 0.00 0.00 0.00 0.00 0.00 0.00 0.00 0.00 0.00 0.00 0.00 0.00 0.00 0.00
MSLP
1011.28 1011.32 1011.71 1012.22 1012.56 1012.89 1013.17 1013.44 1013.70 1013.98 1014.16 1014.35 1014.66 1015.00 1015.23 1015.39 1015.55 1015.66 1015.79 1015.94 1016.00 1016.03 1016.06 1016.11 1016.09 1016.01 1015.96 1015.96 1015.94 1015.89 1015.78 1015.71 1015.61 1015.47 1015.41 1015.27 1015.16 1015.11 1015.07 1015.00 1014.92 1014.82 1014.65
1010.42 1010.99 1011.54 1012.09 1012.45 1012.83 1013.16 1013.43 1013.74 1014.08 1014.29 1014.66 1014.98 1015.22 1015.46 1015.66 1015.78 1015.89 1016.01 1016.11 1016.17 1016.25 1016.35 1016.39 1016.38 1016.31 1016.25 1016.23 1016.18 1016.03 1015.89 1015.84 1015.78 1015.74 1015.69 1015.62 1015.44 1015.27 1015.14 1015.03 1014.97 1014.93 1014.80
1010.52 1010.91 1011.47 1011.98 1012.45 1012.88 1013.23 1013.54 1013.90 1014.22 1014.59 1014.93 1015.22 1015.51 1015.74 1015.90 1016.02 1016.12 1016.22 1016.32 1016.41 1016.50 1016.59 1016.65 1016.67 1016.59 1016.54 1016.50 1016.37 1016.28 1016.19 1016.09 1016.11 1016.04 1016.01 1016.01 1015.81 1015.51 1015.42 1015.27 1015.14 1015.08 1015.02
1010.59 1011.06 1011.47 1011.95 1012.55 1013.01 1013.49 1013.86 1014.16 1014.47 1014.78 1015.14 1015.49 1015.79 1016.02 1016.16 1016.31 1016.44 1016.52 1016.58 1016.68 1016.78 1016.85 1016.91 1016.94 1016.90 1016.81 1016.74 1016.60 1016.51 1016.51 1016.50 1016.50 1016.51 1016.52 1016.39 1016.16 1015.81 1015.66 1015.72 1015.47 1015.48 1015.41
1010.58 1011.11 1011.66 1012.02 1012.62 1013.13 1013.61 1014.06 1014.40 1014.71 1014.99 1015.35 1015.72 1016.02 1016.24 1016.46 1016.63 1016.74 1016.85 1016.93 1016.96 1017.00 1017.05 1017.07 1017.10 1017.08 1017.05 1016.93 1016.87 1016.83 1016.84 1016.86 1016.87 1016.82 1016.76 1016.49 1016.40 1016.18 1016.12 1016.11 1016.02 1015.89 1015.79
1010.65 1011.01 1011.75 1012.03 1012.67 1013.22 1013.76 1014.15 1014.54 1014.92 1015.23 1015.57 1015.89 1016.21 1016.45 1016.65 1016.84 1017.00 1017.16 1017.19 1017.19 1017.16 1017.12 1017.14 1017.12 1017.15 1017.15 1017.08 1017.14 1017.15 1017.17 1017.24 1017.23 1017.12 1017.01 1016.79 1016.60 1016.52 1016.39 1016.39 1016.27 1016.23 1016.11
1010.71 1011.12 1011.70 1012.19 1012.76 1013.30 1013.85 1014.31 1014.71 1015.08 1015.44 1015.74 1016.03 1016.34 1016.59 1016.81 1017.02 1017.20 1017.30 1017.32 1017.30 1017.23 1017.15 1017.14 1017.13 1017.18 1017.20 1017.25 1017.32 1017.39 1017.45 1017.56 1017.61 1017.55 1017.52 1017.26 1017.00 1016.85 1016.84 1016.74 1016.67 1016.56 1016.52
1010.74 1011.27 1011.78 1012.41 1012.95 1013.58 1013.92 1014.43 1014.85 1015.31 1015.58 1015.90 1016.16 1016.48 1016.72 1016.95 1017.13 1017.31 1017.37 1017.36 1017.35 1017.31 1017.24 1017.19 1017.17 1017.27 1017.33 1017.39 1017.48 1017.54 1017.68 1017.78 1017.89 1017.86 1017.77 1017.55 1017.31 1017.28 1017.28 1017.31 1017.07 1016.75 1016.80
1010.86 1011.52 1012.05 1012.59 1013.23 1013.77 1014.15 1014.52 1015.02 1015.41 1015.77 1016.08 1016.41 1016.69 1016.91 1017.12 1017.22 1017.39 1017.49 1017.52 1017.56 1017.54 1017.44 1017.30 1017.24 1017.33 1017.42 1017.47 1017.63 1017.81 1017.97 1018.11 1018.22 1018.11 1017.90 1017.80 1017.66 1017.72 1017.75 1017.62 1017.36 1017.13 1017.13
1011.26 1011.79 1012.35 1012.87 1013.42 1013.95 1014.30 1014.67 1015.23 1015.57 1015.98 1016.32 1016.67 1016.99 1017.20 1017.36 1017.45 1017.61 1017.78 1017.79 1017.77 1017.75 1017.71 1017.58 1017.55 1017.58 1017.67 1017.69 1017.85 1018.05 1018.24 1018.40 1018.54 1018.37 1018.21 1017.96 1018.12 1018.14 1018.02 1017.91 1017.64 1017.53 1017.56
1011.60 1011.90 1012.29 1013.10 1013.68 1014.09 1014.44 1014.81 1015.41 1015.81 1016.25 1016.58 1016.98 1017.25 1017.48 1017.67 1017.86 1017.91 1017.93 1017.89 1017.91 1017.90 1017.92 1017.93 1017.96 1017.99 1018.11 1018.11 1018.19 1018.41 1018.59 1018.80 1018.79 1018.74 1018.53 1018.44 1018.49 1018.40 1018.25 1018.06 1018.05 1018.01 1017.87
1011.51 1012.02 1012.34 1013.18 1013.68 1014.06 1014.35 1015.07 1015.56 1016.17 1016.49 1016.95 1017.31 1017.68 1017.91 1017.91 1017.95 1018.00 1018.13 1018.06 1018.08 1018.19 1018.35 1018.32 1018.39 1018.41 1018.57 1018.69 1018.75 1018.81 1019.08 1019.20 1019.14 1019.11 1018.94 1018.81 1018.78 1018.76 1018.74 1018.71 1018.66 1018.57 1018.46
1011.48 1012.15 1012.48 1013.28 1013.70 1014.10 1014.60 1015.31 1015.86 1016.51 1016.75 1017.36 1017.65 1017.95 1018.17 1018.24 1018.27 1018.35 1018.51 1018.55 1018.58 1018.53 1018.76 1018.86 1018.88 1018.94 1018.96 1019.06 1019.15 1019.26 1019.38 1019.45 1019.50 1019.50 1019.31 1019.24 1019.15 1019.12 1019.13 1019.11 1019.02 1018.90 1018.75
1011.48 1012.05 1012.84 1013.48 1013.79 1014.22 1014.67 1015.31 1015.78 1016.59 1016.83 1017.51 1017.77 1018.02 1018.30 1018.70 1018.70 1018.82 1018.84 1018.89 1018.86 1018.94 1019.04 1019.20 1019.21 1019.23 1019.18 1019.29 1019.38 1019.51 1019.67 1019.78 1019.87 1019.91 1019.75 1019.63 1019.53 1019.45 1019.34 1019.32 1019.29 1019.23 1019.09
1011.46 1012.11 1012.90 1013.63 1013.96 1014.30 1014.97 1015.33 1015.73 1016.35 1016.83 1017.29 1017.75 1017.95 1018.22 1018.60 1018.81 1019.00 1019.02 1019.02 1019.18 1019.12 1019.18 1019.32 1019.33 1019.45 1019.41 1019.45 1019.53 1019.65 1019.81 1019.96 1020.08 1020.14 1020.08 1019.84 1019.83 1019.78 1019.70 1019.62 1019.53 1019.34 1019.25
1010.91 1011.82 1012.79 1013.52 1013.97 1014.35 1015.01 1015.34 1015.57 1016.13 1016.59 1017.05 1017.54 1017.87 1018.16 1018.44 1018.70 1019.00 1019.07 1019.21 1019.36 1019.31 1019.40 1019.50 1019.58 1019.65 1019.77 1019.73 1019.88 1019.90 1020.00 1020.09 1020.24 1020.33 1020.35 1020.29 1020.12 1020.12 1019.97 1019.87 1019.70 1019.56 1019.44
1010.14 1011.23 1012.31 1013.14 1013.70 1014.32 1014.84 1015.43 1015.61 1015.97 1016.30 1016.86 1017.29 1017.74 1018.05 1018.36 1018.70 1019.00 1019.11 1019.24 1019.47 1019.53 1019.48 1019.68 1019.86 1019.90 1019.99 1019.87 1020.14 1020.14 1020.26 1020.30 1020.39 1020.48 1020.51 1020.54 1020.49 1020.41 1020.21 1020.07 1019.94 1019.77 1019.66
1009.76 1010.48 1011.62 1012.68 1013.46 1014.00 1014.42 1015.28 1015.66 1016.07 1016.50 1016.80 1017.15 1017.53 1017.90 1018.26 1018.61 1018.97 1019.13 1019.25 1019.51 1019.65 1019.79 1020.00 1020.24 1020.44 1020.48 1020.42 1020.47 1020.53 1020.51 1020.54 1020.65 1020.73 1020.76 1020.72 1020.66 1020.69 1020.70 1020.49 1020.25 1020.07 1019.85
1010.00 1010.13 1011.00 1012.15 1013.20 1013.78 1014.34 1015.19 1015.73 1016.27 1016.73 1017.01 1017.18 1017.48 1017.78 1018.10 1018.49 1018.84 1019.15 1019.44 1019.56 1019.89 1020.07 1020.16 1020.51 1020.60 1020.88 1020.81 1020.67 1020.69 1020.87 1020.95 1021.08 1020.97 1021.17 1021.28 1021.23 1021.10 1021.08 1020.86 1020.75 1020.46 1020.21
1010.36 1010.08 1010.60 1011.75 1012.91 1013.60 1014.40 1015.46 1016.08 1016.69 1017.07 1017.29 1017.36 1017.46 1017.74 1018.10 1018.41 1018.75 1019.05 1019.23 1019.40 1019.79 1020.21 1020.50 1020.68 1020.81 1021.02 1021.05 1020.97 1021.12 1021.29 1021.21 1021.21 1021.39 1021.50 1021.34 1021.45 1021.55 1021.44 1021.22 1021.04 1020.83 1020.44
1010.75 1010.39 1010.64 1011.41 1012.98 1013.34 1014.36 1015.60 1016.44 1016.77 1017.24 1017.53 1017.55 1017.58 1017.80 1018.08 1018.39 1018.81 1019.25 1019.35 1019.58 1019.78 1020.16 1020.20 1020.78 1021.10 1021.12 1020.93 1021.14 1021.60 1021.62 1021.52 1021.65 1021.75 1021.85 1021.96 1021.72 1021.63 1021.59 1021.57 1021.54 1021.19 1020.82
1010.06 1009.99 1011.93 1011.31 1012.68 1012.82 1013.66 1014.86 1015.43 1016.23 1017.02 1017.22 1017.45 1017.73 1017.95 1018.22 1018.45 1018.69 1019.11 1019.50 1019.58 1019.95 1020.39 1020.70 1020.48 1021.24 1021.64 1021.31 1021.76 1022.29 1022.39 1022.24 1022.01 1022.18 1022.30 1022.23 1022.34 1022.01 1021.86 1021.79 1021.64 1021.44 1021.27
1008.86 1009.66 1012.81 1013.37 1012.22 1012.35 1013.19 1014.54 1015.47 1016.36 1017.05 1017.48 1017.86 1018.19 1018.40 1018.50 1018.71 1018.99 1019.31 1019.66 1019.95 1020.21 1020.52 1020.81 1020.99 1020.97 1021.83 1021.96 1021.66 1022.03 1022.77 1023.12 1022.99 1022.28 1022.51 1022.48 1022.38 1022.20 1021.98 1021.98 1021.83 1021.67 1021.55
1008.06 1010.32 1011.44 1012.40 1013.87 1012.45 1013.09 1014.12 1014.90 1015.80 1016.53 1016.96 1017.43 1018.16 1018.64 1018.70 1018.88 1019.14 1019.49 1019.83 1020.02 1020.21 1020.96 1020.98 1021.54 1021.31 1021.98 1022.39 1022.22 1022.25 1022.59 1022.89 1023.21 1023.21 1022.65 1022.56 1022.33 1022.31 1022.38 1022.09 1022.08 1021.88 1021.55
1008.84 1009.75 1011.22 1011.65 1013.15 1014.68 1012.87 1013.52 1014.30 1015.20 1016.05 1016.52 1017.48 1018.17 1018.69 1018.96 1019.00 1019.36 1019.58 1019.97 1020.36 1019.85 1021.20 1021.54 1021.75 1021.54 1022.22 1022.77 1022.70 1022.95 1023.15 1023.25 1023.30 1023.65 1023.51 1023.10 1022.69 1022.49 1022.26 1022.11 1021.99 1021.88 1021.59
1008.56 1009.18 1010.18 1011.89 1012.97 1014.81 1015.69 1014.09 1013.93 1014.67 1015.74 1016.62 1017.76 1018.40 1019.01 1019.31 1019.38 1019.76 1019.84 1020.24 1020.50 1020.45 1021.20 1021.53 1021.74 1022.07 1022.73 1022.86 1023.21 1023.26 1023.42 1023.78 1023.93 1023.77 1023.92 1023.59 1023.38 1022.95 1022.64 1022.42 1022.02 1021.92 1021.79
Thickness
5748 5749 5747 5743 5741 5739 5738 5737 5736 5736 5736 5735 5734 5732 5732 5731 5730 5729 5728 5727 5726 5726 5725 5724 5724 5724 5724 5723 5723 5723 5723 5723 5723 5722 5722 5721 5720 5719 5718 5716 5715 5715 5714
5755 5750 5746 5742 5741 5739 5738 5737 5736 5734 5734 5733 5731 5731 5730 5729 5728 5727 5727 5726 5725 5724 5723 5723 5722 5722 5722 5722 5721 5722 5722 5722 5721 5720 5719 5718 5717 5716 5716 5715 5714 5713 5712
5751 5749 5745 5742 5739 5737 5736 5735 5734 5733 5731 5730 5729 5728 5727 5726 5726 5726 5725 5724 5724 5723 5722 5721 5720 5720 5720 5720 5720 5720 5720 5719 5718 5717 5716 5715 5714 5714 5712 5712 5711 5710 5709
5747 5745 5742 5740 5737 5735 5733 5731 5731 5730 5729 5728 5727 5725 5725 5724 5724 5723 5723 5722 5721 5721 5720 5719 5718 5717 5717 5717 5717 5718 5717 5716 5715 5713 5712 5711 5711 5710 5709 5707 5707 5706 5704
5744 5741 5738 5737 5735 5732 5730 5728 5728 5727 5727 5726 5724 5723 5722 5721 5720 5720 5720 5719 5719 5719 5718 5717 5716 5716 5715 5715 5714 5714 5713 5713 5712 5711 5710 5709 5708 5706 5705 5703 5702 5701 5700
5740 5739 5735 5735 5732 5729 5727 5726 5725 5725 5724 5723 5722 5721 5720 5719 5718 5718 5717 5717 5717 5717 5716 5716 5715 5714 5713 5712 5711 5710 5710 5709 5708 5708 5707 5706 5705 5703 5702 5701 5700 5698 5697
5736 5734 5732 5730 5728 5726 5724 5723 5722 5722 5721 5721 5720 5718 5717 5716 5716 5715 5714 5714 5715 5715 5716 5715 5714 5713 5711 5709 5708 5707 5707 5706 5705 5704 5703 5702 5701 5700 5698 5697 5695 5694 5692
5732 5729 5728 5725 5724 5722 5721 5720 5719 5718 5718 5717 5717 5716 5715 5714 5713 5712 5712 5712 5713 5713 5713 5713 5713 5711 5709 5707 5706 5704 5703 5702 5701 5700 5699 5699 5697 5695 5693 5691 5690 5691 5688
5727 5725 5722 5721 5718 5717 5717 5717 5715 5715 5714 5714 5713 5712 5712 5711 5711 5710 5710 5710 5710 5709 5710 5711 5710 5709 5707 5705 5703 5701 5699 5698 5697 5696 5696 5695 5693 5691 5688 5687 5686 5686 5683
5720 5719 5715 5715 5714 5713 5713 5712 5711 5712 5710 5710 5709 5708 5708 5708 5708 5707 5707 5706 5706 5706 5706 5706 5706 5705 5703 5702 5699 5697 5695 5694 5692 5692 5692 5691 5687 5685 5684 5683 5683 5682 5678
5712 5714 5713 5709 5709 5710 5710 5709 5708 5707 5706 5706 5704 5704 5704 5705 5704 5704 5704 5704 5703 5703 5702 5701 5701 5700 5699 5697 5695 5692 5691 5689 5688 5687 5686 5685 5682 5681 5680 5679 5677 5676 5674
5706 5706 5709 5706 5706 5707 5706 5705 5705 5702 5703 5701 5700 5699 5699 5700 5701 5701 5700 5701 5701 5699 5697 5696 5695 5695 5694 5692 5690 5688 5685 5683 5682 5681 5680 5678 5677 5675 5673 5672 5670 5668 5667
5700 5700 5703 5702 5702 5703 5702 5701 5699 5697 5698 5695 5695 5694 5694 5695 5696 5697 5696 5696 5696 5696 5694 5692 5692 5690 5689 5687 5685 5683 5680 5678 5676 5675 5673 5672 5670 5669 5667 5665 5664 5662 5661
5695 5695 5693 5694 5697 5698 5698 5698 5697 5693 5694 5691 5691 5690 5690 5689 5691 5690 5691 5691 5691 5691 5690 5688 5687 5686 5685 5683 5680 5678 5675 5673 5671 5669 5668 5666 5664 5663 5662 5660 5658 5656 5655
5687 5689 5688 5686 5689 5691 5691 5693 5693 5691 5690 5688 5687 5687 5687 5686 5686 5685 5686 5687 5686 5686 5685 5684 5683 5682 5681 5679 5676 5674 5671 5668 5666 5664 5662 5661 5659 5657 5655 5654 5652 5651 5650
5684 5684 5683 5681 5683 5684 5685 5686 5689 5688 5687 5686 5684 5683 5682 5682 5682 5680 5682 5682 5681 5681 5680 5678 5677 5677 5675 5674 5671 5668 5666 5663 5660 5657 5656 5654 5653 5650 5649 5648 5647 5645 5644
5684 5681 5678 5677 5679 5679 5679 5679 5681 5682 5684 5682 5681 5679 5678 5678 5677 5676 5677 5677 5675 5674 5675 5673 5671 5669 5668 5668 5665 5663 5659 5657 5654 5651 5649 5647 5646 5644 5643 5641 5640 5639 5638
5676 5680 5676 5674 5675 5676 5678 5675 5676 5675 5676 5677 5677 5676 5674 5673 5672 5671 5671 5672 5669 5668 5667 5665 5663 5661 5659 5658 5656 5655 5653 5650 5647 5644 5642 5640 5640 5637 5635 5633 5633 5631 5631
5667 5675 5674 5673 5669 5670 5670 5668 5668 5667 5666 5668 5671 5671 5670 5669 5668 5667 5666 5664 5663 5661 5659 5658 5655 5654 5650 5650 5650 5648 5645 5642 5638 5636 5632 5629 5628 5627 5626 5624 5623 5624 5623
5657 5667 5669 5668 5662 5661 5660 5657 5658 5657 5657 5659 5662 5664 5664 5663 5662 5661 5661 5660 5659 5656 5652 5649 5647 5646 5643 5641 5641 5638 5635 5634 5632 5628 5625 5624 5620 5617 5616 5616 5616 5616 5615
5638 5644 5657 5659 5651 5655 5654 5650 5649 5650 5647 5649 5652 5655 5656 5656 5655 5655 5653 5652 5650 5648 5644 5645 5639 5636 5634 5634 5632 5627 5624 5624 5621 5619 5615 5613 5613 5612 5609 5607 5605 5606 5606
5634 5640 5631 5652 5646 5652 5651 5646 5646 5643 5640 5643 5646 5647 5648 5649 5650 5650 5647 5644 5642 5639 5634 5630 5631 5625 5621 5622 5618 5611 5607 5611 5610 5607 5604 5603 5600 5600 5599 5596 5595 5595 5594
5640 5636 5616 5618 5640 5649 5646 5638 5637 5636 5635 5636 5635 5635 5636 5638 5639 5639 5637 5633 5630 5626 5622 5619 5618 5618 5609 5607 5608 5605 5596 5594 5589 5597 5594 5592 5591 5590 5590 5587 5585 5584 5582
5640 5623 5622 5613 5615 5637 5638 5634 5637 5634 5631 5628 5628 5626 5625 5627 5628 5628 5625 5622 5619 5615 5608 5606 5602 5605 5598 5594 5594 5593 5588 5585 5582 5580 5584 5583 5582 5580 5576 5576 5573 5573 5573
5623 5619 5616 5617 5609 5604 5631 5631 5631 5627 5623 5626 5623 5619 5617 5616 5618 5615 5613 5609 5605 5608 5597 5593 5589 5592 5586 5580 5580 5578 5575 5573 5573 5570 5568 5567 5569 5567 5566 5564 5564 5561 5561
5617 5618 5616 5610 5605 5593 5589 5614 5622 5621 5618 5617 5610 5607 5603 5603 5605 5602 5601 5596 5594 5594 5587 5585 5582 5580 5573 5571 5567 5567 5565 5562 5560 5560 5555 5555 5553 5554 5552 5550 5550 5549 5546